Date String (YYYY-MM-DD hh:mm:ss) UTC,Instrument flags,absolute air pressure of the measurement (hPa),sample flow rate (lpm),inlet stack bypass flow (lpm),air temperature of the measurement (°C),ambient temperature measured by the external sensor (°C),aerosol sample conditioner tube jacket temperature (°C),OPC LED temperature (°C),internal box temperature (°C),relative humidity of the measurement (%),span deviation,mass concentration of particles derived from Lorenz-Mie calculation of OPC scattering (μg/m³),mass concentration of particles derived from Lorenz-Mie calculation of OPC scattering (μg/m³),mass concentration of particles derived from Lorenz-Mie calculation of OPC scattering (μg/m³)
DateTimeUTC,F1_M11,P_M11,Q1_M11,Q2_M11,T1_M11,T2_M11,T3_M11,T4_M11,T5_M11,U1_M11,ZSPAN_M11,X2_M11,X0_M11,X1_M11
2024-04-29 14:00:00,SystemResetWarning,0826.9,5.00,000.00,024.4,023.7,000.0,032.8,026.2,018.5,0000.0,0002.06,0005.59,0001.17
2024-04-29 14:01:00,SystemResetWarning,0827.0,5.00,000.00,024.4,023.7,000.0,032.8,026.2,019.2,0000.0,0002.08,0005.50,0001.16
2024-04-29 14:02:00,SystemResetWarning,0826.9,5.00,000.00,024.4,023.7,000.0,032.9,026.3,020.1,0000.0,0002.09,0005.59,0001.15
2024-04-29 14:03:00,SystemResetWarning,0826.9,5.00,000.00,024.4,023.8,000.0,032.9,026.3,019.5,0000.0,0002.14,0005.78,0001.14
2024-04-29 14:04:00,SystemResetWarning,0826.9,4.99,000.00,024.4,023.7,000.0,032.9,026.3,017.3,0000.0,0002.19,0005.92,0001.13
2024-04-29 14:05:00,SystemResetWarning,0826.9,5.00,000.00,024.4,023.7,000.0,032.9,026.3,017.4,0000.0,0002.26,0006.14,0001.15
2024-04-29 14:06:00,SystemResetWarning,0826.9,5.00,000.00,024.4,023.7,000.0,032.9,026.3,017.5,0000.0,0002.40,0006.46,0001.15
2024-04-29 14:07:00,SystemResetWarning,0826.9,5.00,000.00,024.4,023.7,000.0,032.9,026.3,017.8,0000.0,0002.40,0006.23,0001.16
2024-04-29 14:08:00,SystemResetWarning,0827.0,5.01,000.00,024.4,023.7,000.0,032.9,026.3,018.2,0000.0,0002.61,0006.78,0001.19
2024-04-29 14:09:00,SystemResetWarning,0826.9,5.00,000.00,024.4,023.7,000.0,032.9,026.3,019.4,0000.0,0002.68,0006.13,0001.20
2024-04-29 14:10:00,SystemResetWarning,0826.9,5.00,000.00,024.4,023.7,000.0,032.9,026.3,017.7,0000.0,0002.71,0005.83,0001.21
2024-04-29 14:11:00,SystemResetWarning,0826.8,5.01,000.00,024.4,023.7,000.0,032.9,026.3,016.0,0000.0,0002.76,0006.62,0001.24
2024-04-29 14:12:00,SystemResetWarning,0826.8,5.00,000.00,024.4,023.7,000.0,032.9,026.3,015.8,0000.0,0002.86,0006.86,0001.26
2024-04-29 14:13:00,SystemResetWarning,0826.7,5.01,000.00,024.4,023.7,000.0,032.9,026.3,016.1,0000.0,0002.98,0007.05,0001.30
2024-04-29 14:14:00,SystemResetWarning,0826.8,5.00,000.00,024.4,023.7,000.0,032.9,026.3,017.1,0000.0,0003.07,0007.30,0001.33
2024-04-29 14:15:00,SystemResetWarning,0826.8,5.00,000.00,024.4,023.7,000.0,032.9,026.3,016.3,0000.0,0003.14,0007.81,0001.36
2024-04-29 14:16:00,SystemResetWarning,0826.8,5.00,000.00,024.4,023.7,000.0,032.9,026.3,018.2,0000.0,0003.21,0008.25,0001.38
2024-04-29 14:17:00,SystemResetWarning,0826.8,4.99,000.00,024.4,023.7,000.0,032.9,026.3,018.8,0000.0,0003.24,0008.46,0001.39
2024-04-29 14:18:00,SystemResetWarning,0826.8,4.99,000.00,024.4,023.7,000.0,032.9,026.3,019.9,0000.0,0003.27,0008.83,0001.39
2024-04-29 14:19:00,SystemResetWarning,0826.8,5.01,000.00,024.4,023.7,000.0,032.9,026.3,020.4,0000.0,0003.22,0008.84,0001.38
2024-04-29 14:20:00,SystemResetWarning,0826.8,5.01,000.00,024.4,023.7,000.0,032.9,026.3,017.3,0000.0,0003.21,0009.27,0001.39
2024-04-29 14:21:00,SystemResetWarning,0826.8,5.00,000.00,024.4,023.7,000.0,032.9,026.2,016.2,0000.0,0003.28,0009.52,0001.40
2024-04-29 14:22:00,SystemResetWarning,0826.8,4.98,000.00,024.4,023.6,000.0,032.9,026.2,015.2,0000.0,0003.31,0009.32,0001.40
2024-04-29 14:23:00,SystemResetWarning,0826.8,5.00,000.00,024.4,023.6,000.0,032.9,026.2,015.6,0000.0,0003.33,0009.38,0001.41
2024-04-29 14:24:00,SystemResetWarning,0826.7,5.00,000.00,024.4,023.6,000.0,032.9,026.2,015.4,0000.0,0003.34,0009.61,0001.40
2024-04-29 14:25:00,SystemResetWarning,0826.7,5.01,000.00,024.4,023.6,000.0,032.9,026.2,015.5,0000.0,0003.40,0009.88,0001.41
2024-04-29 14:26:00,SystemResetWarning,0826.6,5.00,000.00,024.4,023.5,000.0,032.9,026.2,015.1,0000.0,0003.39,0010.15,0001.41
2024-04-29 14:27:00,SystemResetWarning,0826.6,5.01,000.00,024.4,023.5,000.0,032.9,026.2,014.1,0000.0,0003.42,0009.86,0001.42
2024-04-29 14:28:00,SystemResetWarning,0826.7,5.00,000.00,024.4,023.5,000.0,032.9,026.1,015.4,0000.0,0003.49,0010.07,0001.43
2024-04-29 14:29:00,SystemResetWarning,0826.7,4.98,000.00,024.4,023.5,000.0,032.9,026.1,016.3,0000.0,0003.49,0009.80,0001.45
2024-04-29 14:30:00,SystemResetWarning,0826.8,5.00,000.00,024.4,023.5,000.0,032.9,026.1,018.3,0000.0,0003.51,0010.18,0001.45
2024-04-29 14:31:00,SystemResetWarning,0826.8,5.01,000.00,024.4,023.5,000.0,032.9,026.1,015.9,0000.0,0003.54,0010.07,0001.45
2024-04-29 14:32:00,SystemResetWarning,0826.8,5.01,000.00,024.3,023.5,000.0,032.9,026.1,015.7,0000.0,0003.61,0010.14,0001.45
2024-04-29 14:33:00,SystemResetWarning,0826.8,4.99,000.00,024.3,023.5,000.0,032.9,026.1,015.2,0000.0,0003.69,0010.98,0001.47
2024-04-29 14:34:00,SystemResetWarning,0826.8,4.99,000.00,024.3,023.5,000.0,032.8,026.1,015.5,0000.0,0003.74,0011.40,0001.49
2024-04-29 14:35:00,SystemResetWarning,0826.8,5.01,000.00,024.3,023.5,000.0,032.8,026.1,015.2,0000.0,0003.76,0011.61,0001.51
2024-04-29 14:36:00,SystemResetWarning,0826.8,5.01,000.00,024.3,023.5,000.0,032.8,026.1,015.4,0000.0,0003.71,0011.50,0001.50
2024-04-29 14:37:00,SystemResetWarning,0826.8,5.00,000.00,024.3,023.5,000.0,032.8,026.1,015.5,0000.0,0003.68,0011.29,0001.50
2024-04-29 14:38:00,SystemResetWarning,0826.9,5.00,000.00,024.3,023.5,000.0,032.8,026.1,015.6,0000.0,0003.68,0011.42,0001.51
2024-04-29 14:39:00,SystemResetWarning,0826.8,5.00,000.00,024.3,023.4,000.0,032.8,026.1,015.1,0000.0,0003.62,0011.20,0001.51
2024-04-29 14:40:00,SystemResetWarning,0826.9,5.00,000.00,024.3,023.4,000.0,032.8,026.1,016.0,0000.0,0003.70,0011.38,0001.52
2024-04-29 14:41:00,SystemResetWarning,0826.8,5.00,000.00,024.3,023.4,000.0,032.8,026.0,016.0,0000.0,0003.76,0011.39,0001.53
2024-04-29 14:42:00,SystemResetWarning,0826.9,4.98,000.00,024.3,023.4,000.0,032.8,026.0,015.9,0000.0,0003.83,0011.19,0001.55
2024-04-29 14:43:00,SystemResetWarning,0826.8,4.99,000.00,024.3,023.4,000.0,032.8,026.0,015.4,0000.0,0003.75,0011.13,0001.55
2024-04-29 14:44:00,SystemResetWarning,0826.8,5.00,000.00,024.3,023.4,000.0,032.8,026.0,015.5,0000.0,0003.67,0010.54,0001.55
2024-04-29 14:45:00,SystemResetWarning,0826.8,5.00,000.00,024.3,023.4,000.0,032.8,026.0,015.0,0000.0,0003.61,0009.79,0001.53
2024-04-29 14:46:00,SystemResetWarning,0826.8,5.00,000.00,024.3,023.4,000.0,032.8,026.0,015.5,0000.0,0003.56,0009.46,0001.52
2024-04-29 14:47:00,SystemResetWarning,0826.8,4.98,000.00,024.3,023.4,000.0,032.8,026.0,015.0,0000.0,0003.61,0009.32,0001.50
2024-04-29 14:48:00,SystemResetWarning,0826.8,5.01,000.00,024.3,023.4,000.0,032.8,026.0,014.6,0000.0,0003.62,0009.22,0001.50
2024-04-29 14:49:00,SystemResetWarning,0826.8,5.01,000.00,024.3,023.4,000.0,032.8,026.0,014.8,0000.0,0003.59,0008.83,0001.49
2024-04-29 14:50:00,SystemResetWarning,0826.8,5.01,000.00,024.3,023.4,000.0,032.7,026.0,015.4,0000.0,0003.54,0008.64,0001.47
2024-04-29 14:51:00,SystemResetWarning,0826.7,4.99,000.00,024.2,023.4,000.0,032.7,026.0,014.6,0000.0,0003.46,0008.47,0001.47
2024-04-29 14:52:00,SystemResetWarning,0826.7,4.99,000.00,024.2,023.4,000.0,032.7,026.0,015.0,0000.0,0003.42,0008.32,0001.46
2024-04-29 14:53:00,SystemResetWarning,0826.7,4.99,000.00,024.2,023.4,000.0,032.7,026.0,015.9,0000.0,0003.41,0008.26,0001.45
2024-04-29 14:54:00,SystemResetWarning,0826.8,4.99,000.00,024.2,023.4,000.0,032.7,026.0,015.7,0000.0,0003.40,0008.12,0001.43
2024-04-29 14:55:00,SystemResetWarning,0826.8,5.00,000.00,024.2,023.4,000.0,032.7,026.0,015.3,0000.0,0003.38,0007.97,0001.42
2024-04-29 14:56:00,SystemResetWarning,0826.9,5.01,000.00,024.2,023.4,000.0,032.7,026.0,015.2,0000.0,0003.37,0007.98,0001.41
2024-04-29 14:57:00,SystemResetWarning,0826.8,5.01,000.00,024.2,023.4,000.0,032.7,026.0,015.1,0000.0,0003.40,0008.02,0001.42
2024-04-29 14:58:00,SystemResetWarning,0826.8,4.99,000.00,024.2,023.4,000.0,032.7,026.0,017.0,0000.0,0003.36,0007.93,0001.43
2024-04-29 14:59:00,SystemResetWarning,0826.8,4.99,000.00,024.2,023.4,000.0,032.7,026.0,017.1,0000.0,0003.37,0008.21,0001.43
